Weather History for KMWH - September, 2013

Change the Weather History Date:

Saturday, September 7, 2013

  Actual Average Record
Temperature  
Mean Temperature 60 °F 66 °F  
Max Temperature 69 °F 81 °F 98 °F (2011)
Min Temperature 51 °F 50 °F 38 °F (1984)
Degree Days  
Heating Degree Days 5 2  
Month to date heating degree days 8 12  
Since 1 July heating degree days 8 32  
Cooling Degree Days 0 3  
Month to date cooling degree days 54 23  
Year to date cooling degree days 867 593  
Growing Degree Days 10 (Base 50)    
Moisture  
Dew Point 54 °F    
Average Humidity 80    
Maximum Humidity 100    
Minimum Humidity 59    
Precipitation  
Precipitation 0.00 in 0.01 in 0.03 in (2003)
Month to date precipitation 0.36 0.08  
Year to date precipitation 4.67 5.51  
Sea Level Pressure  
Sea Level Pressure 30.09 in    
Wind  
Wind Speed 5 mph (NNE)    
Max Wind Speed 12 mph    
Max Gust Speed 14 mph    
Visibility 10 miles    
Events      
T = Trace of Precipitation, MM = Missing Value Source: NWS Daily Summary

Daily Weather History Graph

Daily Weather History Graph

Search for Another Location

Airport or City:

Trip Planner

Search our weather history database for the weather conditions in past years. The results will help you decide how hot, cold, wet, or windy it might be!

Date:

Astronomy

Sep. 07, 2013 Rise Set
Actual Time 6:24 AM PDT 7:24 PM PDT
Civil Twilight 5:53 AM PDT 7:55 PM PDT
Nautical Twilight 5:16 AM PDT 8:32 PM PDT
Astronomical Twilight 4:36 AM PDT 9:12 PM PDT
Moon 8:57 AM PDT (9/7) 8:11 PM PDT (9/7)
Length of Visible Light 14h 02m
Length of Day
12h 59m
Waxing Crescent, 6% of the Moon is Illuminated
Sep 7
Waxing Crescent
Sep 12
First Quarter
Sep 19
Full
Sep 26
Last Quarter
Oct 4
New

Hourly Weather History & Observations

Time (PDT) Temp. Dew Point Humidity Pressure Visibility Wind Dir Wind Speed Gust Speed Precip Events Conditions
12:52 AM 55.0 °F 54.0 °F 96% 30.12 in 10.0 mi NE 4.6 mph - N/A   Clear
1:52 AM 54.0 °F 53.1 °F 97% 30.12 in 10.0 mi Calm Calm - N/A   Clear
2:52 AM 53.1 °F 52.0 °F 96% 30.12 in 10.0 mi Calm Calm - N/A   Clear
3:19 AM 53.6 °F 53.6 °F 100% 30.12 in 10.0 mi Calm Calm - N/A   Mostly Cloudy
3:52 AM 54.0 °F 53.1 °F 97% 30.12 in 10.0 mi NW 3.5 mph - N/A   Overcast
4:47 AM 53.6 °F 51.8 °F 94% 30.12 in 10.0 mi North 4.6 mph - N/A   Scattered Clouds
4:52 AM 53.1 °F 52.0 °F 96% 30.12 in 10.0 mi North 5.8 mph - N/A   Partly Cloudy
5:52 AM 52.0 °F 51.1 °F 97% 30.11 in 10.0 mi NNE 4.6 mph - N/A   Clear
6:52 AM 51.1 °F 50.0 °F 96% 30.11 in 10.0 mi NNE 4.6 mph - N/A   Clear
7:52 AM 54.0 °F 53.1 °F 97% 30.12 in 10.0 mi NNE 4.6 mph - N/A   Clear
8:52 AM 59.0 °F 55.0 °F 87% 30.12 in 10.0 mi ENE 3.5 mph - N/A   Clear
9:42 AM 62.6 °F 55.4 °F 77% 30.12 in 10.0 mi Calm Calm - N/A   Mostly Cloudy
9:52 AM 62.1 °F 55.9 °F 80% 30.12 in 10.0 mi East 4.6 mph - N/A   Overcast
10:12 AM 64.4 °F 55.4 °F 73% 30.13 in 10.0 mi NE 4.6 mph - N/A   Overcast
10:52 AM 64.9 °F 55.9 °F 73% 30.12 in 10.0 mi NNE 4.6 mph - N/A   Scattered Clouds
11:52 AM 66.9 °F 55.9 °F 68% 30.11 in 10.0 mi North 6.9 mph - N/A   Mostly Cloudy
12:52 PM 64.9 °F 55.0 °F 70% 30.10 in 10.0 mi NNE 6.9 mph - N/A   Overcast
1:52 PM 64.9 °F 55.9 °F 73% 30.10 in 10.0 mi North 10.4 mph - N/A   Overcast
2:52 PM 64.9 °F 55.9 °F 73% 30.08 in 10.0 mi NNE 10.4 mph - N/A   Overcast
3:52 PM 68.0 °F 55.0 °F 63% 30.06 in 10.0 mi NNE 11.5 mph - N/A   Overcast
4:52 PM 68.0 °F 55.9 °F 65% 30.05 in 10.0 mi NNE 9.2 mph - N/A   Overcast
5:52 PM 69.1 °F 55.0 °F 61% 30.04 in 10.0 mi North 6.9 mph - N/A   Overcast
6:52 PM 68.0 °F 54.0 °F 61% 30.04 in 10.0 mi NNE 5.8 mph - N/A   Overcast
7:52 PM 66.0 °F 54.0 °F 65% 30.04 in 10.0 mi Calm Calm - N/A   Clear
8:52 PM 61.0 °F 53.1 °F 75% 30.05 in 10.0 mi NNW 4.6 mph - N/A   Clear
9:52 PM 59.0 °F 53.1 °F 81% 30.05 in 10.0 mi Calm Calm - N/A   Clear
10:52 PM 57.9 °F 54.0 °F 87% 30.05 in 10.0 mi North 3.5 mph - N/A   Clear
11:52 PM 55.9 °F 53.1 °F 90% 30.06 in 10.0 mi Calm Calm - N/A   Clear